OCN615 LFMT-EDDF

Flight info

Callsign OCN615
Flight time 1h 13m
Altitude 36000
Route NG DCT MOLEN DCT MTL UM976 ETREK UN871 OMASI DCT KINNI DCT SOSAL DCT KORED DCT BERSU DCT DITON/N0455F350 DCT LADOL/N0455F360 T163 EMPAX EMPAX5A
Aircraft A20N/M-SDE2E3FGHIRWXY/LB1

Departure

Time 2026-05-06 15:24
Airport Montpellier-Méditerranée Airport (LFMT)

Arrival

Time 2026-05-06 16:37
Airport Frankfurt Main Airport (EDDF)
Time Latitude Longitude Altitude Speed Heading
2026-05-06 15:14 43.57941 3.96022 20 ft 0 kts 255°
2026-05-06 15:15 43.57941 3.96023 20 ft 1 kts 256°
2026-05-06 15:15 43.57943 3.96037 20 ft 2 kts 245°
2026-05-06 15:16 43.57952 3.96054 20 ft 2 kts 220°
2026-05-06 15:16 43.57966 3.96065 20 ft 2 kts 197°
2026-05-06 15:16 43.57980 3.96068 19 ft 2 kts 175°
2026-05-06 15:16 43.57995 3.96063 20 ft 2 kts 153°
2026-05-06 15:17 43.58007 3.96050 20 ft 1 kts 130°
2026-05-06 15:17 43.58011 3.96044 20 ft 1 kts 120°
2026-05-06 15:17 43.58013 3.96038 20 ft 0 kts 123°
2026-05-06 15:18 43.58012 3.96041 20 ft 1 kts 123°
2026-05-06 15:19 43.57987 3.96091 19 ft 9 kts 127°
2026-05-06 15:19 43.57972 3.96182 17 ft 11 kts 71°
2026-05-06 15:19 43.58031 3.96265 16 ft 12 kts 58°
2026-05-06 15:19 43.58002 3.96380 14 ft 13 kts 123°
2026-05-06 15:20 43.57948 3.96488 14 ft 13 kts 125°
2026-05-06 15:20 43.57892 3.96598 14 ft 14 kts 126°
2026-05-06 15:20 43.57831 3.96714 12 ft 15 kts 126°
2026-05-06 15:20 43.57767 3.96840 11 ft 16 kts 124°
2026-05-06 15:21 43.57702 3.96969 11 ft 16 kts 122°
2026-05-06 15:21 43.57632 3.97112 11 ft 19 kts 125°
2026-05-06 15:21 43.57557 3.97262 11 ft 19 kts 125°
2026-05-06 15:21 43.57478 3.97412 11 ft 19 kts 124°
2026-05-06 15:22 43.57400 3.97573 11 ft 20 kts 123°
2026-05-06 15:22 43.57320 3.97734 10 ft 20 kts 125°
2026-05-06 15:22 43.57242 3.97888 10 ft 17 kts 124°
2026-05-06 15:22 43.57185 3.98009 10 ft 13 kts 105°
2026-05-06 15:23 43.57203 3.98131 10 ft 13 kts 50°
2026-05-06 15:23 43.57264 3.98192 10 ft 9 kts 23°
2026-05-06 15:23 43.57316 3.98152 10 ft 11 kts 303°
2026-05-06 15:23 43.57498 3.97778 11 ft 87 kts 304°
2026-05-06 15:24 43.57987 3.96818 17 ft 151 kts 303°
2026-05-06 15:24 43.58628 3.95555 399 ft 170 kts 302°
2026-05-06 15:24 43.59308 3.94207 1161 ft 174 kts 303°
2026-05-06 15:24 43.60106 3.93044 2031 ft 172 kts 330°
2026-05-06 15:25 43.61287 3.92843 2758 ft 182 kts 10°
2026-05-06 15:25 43.62498 3.93537 3324 ft 197 kts 33°
2026-05-06 15:25 43.63390 3.95059 3758 ft 217 kts 69°
2026-05-06 15:25 43.63438 3.97190 4100 ft 240 kts 111°
2026-05-06 15:26 43.62512 3.99163 4658 ft 253 kts 130°
2026-05-06 15:26 43.61556 4.01270 5139 ft 271 kts 105°
2026-05-06 15:26 43.61382 4.03897 5783 ft 280 kts 87°
2026-05-06 15:26 43.61488 4.06579 6605 ft 285 kts 85°
2026-05-06 15:27 43.61641 4.09286 7440 ft 289 kts 84°
2026-05-06 15:27 43.61806 4.12058 8251 ft 293 kts 84°
2026-05-06 15:27 43.62137 4.14833 9041 ft 295 kts 67°
2026-05-06 15:27 43.63138 4.17256 9862 ft 294 kts 51°
2026-05-06 15:28 43.64405 4.19467 10500 ft 303 kts 48°
2026-05-06 15:28 43.65786 4.21805 10877 ft 321 kts 49°
2026-05-06 15:28 43.67203 4.24288 11205 ft 339 kts 50°
2026-05-06 15:28 43.68653 4.26918 11504 ft 357 kts 51°
2026-05-06 15:29 43.70169 4.29726 11920 ft 370 kts 51°
2026-05-06 15:29 43.71708 4.32613 12571 ft 375 kts 52°
2026-05-06 15:29 43.73251 4.35515 13258 ft 379 kts 52°
2026-05-06 15:29 43.74830 4.38468 13922 ft 383 kts 50°
2026-05-06 15:30 43.76717 4.41026 14553 ft 383 kts 32°
2026-05-06 15:30 43.79085 4.42679 15206 ft 382 kts 15°
2026-05-06 15:30 43.81686 4.43597 15871 ft 384 kts 10°
2026-05-06 15:30 43.84286 4.44402 16482 ft 388 kts
2026-05-06 15:31 43.86905 4.45214 17083 ft 392 kts
2026-05-06 15:31 43.89577 4.46061 17711 ft 396 kts 10°
2026-05-06 15:31 43.92268 4.46931 18317 ft 399 kts 10°
2026-05-06 15:32 43.97706 4.48713 19460 ft 407 kts 10°
2026-05-06 15:32 44.00453 4.49622 20022 ft 410 kts 10°
2026-05-06 15:32 44.03259 4.50557 20577 ft 413 kts 11°
2026-05-06 15:32 44.06023 4.51655 21141 ft 417 kts 14°
2026-05-06 15:33 44.08780 4.53001 21672 ft 422 kts 17°
2026-05-06 15:33 44.11535 4.54454 22184 ft 425 kts 17°
2026-05-06 15:33 44.14263 4.55911 22689 ft 428 kts 17°
2026-05-06 15:33 44.17071 4.57410 23166 ft 432 kts 17°
2026-05-06 15:34 44.19888 4.58914 23631 ft 435 kts 17°
2026-05-06 15:34 44.22726 4.60428 24075 ft 439 kts 17°
2026-05-06 15:34 44.25557 4.61939 24461 ft 442 kts 17°
2026-05-06 15:34 44.28435 4.63475 24837 ft 446 kts 17°
2026-05-06 15:35 44.31346 4.65030 25172 ft 450 kts 17°
2026-05-06 15:35 44.34270 4.66601 25483 ft 455 kts 18°
2026-05-06 15:35 44.37209 4.68189 25787 ft 458 kts 18°
2026-05-06 15:35 44.40198 4.69801 26077 ft 462 kts 18°
2026-05-06 15:36 44.43203 4.71415 26386 ft 465 kts 18°
2026-05-06 15:36 44.46259 4.73058 26681 ft 468 kts 18°
2026-05-06 15:36 44.49263 4.74673 26956 ft 472 kts 18°
2026-05-06 15:36 44.52371 4.76273 27220 ft 473 kts 13°
2026-05-06 15:37 44.55579 4.77227 27476 ft 470 kts
2026-05-06 15:37 44.58808 4.77351 27776 ft 465 kts 351°
2026-05-06 15:37 44.61980 4.76803 28077 ft 463 kts 346°
2026-05-06 15:37 44.65155 4.76075 28326 ft 465 kts 346°
2026-05-06 15:38 44.68378 4.75303 28575 ft 467 kts 346°
2026-05-06 15:38 44.71573 4.74550 28830 ft 469 kts 346°
2026-05-06 15:38 44.74771 4.73815 29154 ft 468 kts 346°
2026-05-06 15:38 44.77988 4.73087 29484 ft 468 kts 346°
2026-05-06 15:39 44.81162 4.72373 29781 ft 468 kts 346°
2026-05-06 15:39 44.84390 4.71648 30081 ft 469 kts 347°
2026-05-06 15:39 44.87613 4.70927 30364 ft 469 kts 346°
2026-05-06 15:39 44.90838 4.70205 30637 ft 470 kts 347°
2026-05-06 15:40 44.94057 4.69479 30922 ft 469 kts 347°
2026-05-06 15:40 44.97245 4.68761 31217 ft 469 kts 347°
2026-05-06 15:40 45.00465 4.68036 31510 ft 468 kts 347°
2026-05-06 15:40 45.03666 4.67314 31799 ft 468 kts 347°
2026-05-06 15:41 45.06893 4.66591 32071 ft 468 kts 348°
2026-05-06 15:41 45.10157 4.66241 32303 ft 473 kts 358°
2026-05-06 15:41 45.13443 4.66643 32548 ft 476 kts
2026-05-06 15:41 45.16640 4.67775 32739 ft 480 kts 17°
2026-05-06 15:42 45.19687 4.69619 32905 ft 482 kts 27°
2026-05-06 15:42 45.22523 4.72160 33113 ft 482 kts 37°
2026-05-06 15:42 45.25010 4.75276 33349 ft 481 kts 46°
2026-05-06 15:42 45.27187 4.78918 33570 ft 480 kts 52°
2026-05-06 15:43 45.29197 4.82634 33757 ft 481 kts 53°
2026-05-06 15:43 45.31215 4.86433 33938 ft 481 kts 53°
2026-05-06 15:43 45.33229 4.90210 34139 ft 482 kts 53°
2026-05-06 15:43 45.35249 4.93972 34321 ft 482 kts 53°
2026-05-06 15:44 45.37291 4.97753 34501 ft 483 kts 53°
2026-05-06 15:44 45.39318 5.01492 34659 ft 483 kts 53°
2026-05-06 15:44 45.41367 5.05271 34775 ft 485 kts 53°
2026-05-06 15:44 45.43429 5.09076 34900 ft 486 kts 53°
2026-05-06 15:45 45.45503 5.12906 35057 ft 487 kts 53°
2026-05-06 15:45 45.47559 5.16707 35158 ft 488 kts 53°
2026-05-06 15:45 45.49607 5.20501 35274 ft 489 kts 53°
2026-05-06 15:45 45.51680 5.24341 35402 ft 489 kts 53°
2026-05-06 15:46 45.53747 5.28178 35524 ft 490 kts 53°
2026-05-06 15:46 45.55828 5.32043 35653 ft 490 kts 53°
2026-05-06 15:46 45.57870 5.35846 35808 ft 490 kts 53°
2026-05-06 15:46 45.59959 5.39739 35866 ft 491 kts 53°
2026-05-06 15:47 45.64096 5.47461 35873 ft 493 kts 53°
2026-05-06 15:47 45.68251 5.55241 35874 ft 493 kts 53°
2026-05-06 15:48 45.72375 5.62982 35872 ft 493 kts 53°
2026-05-06 15:48 45.76501 5.70763 35870 ft 492 kts 54°
2026-05-06 15:49 45.80611 5.78539 35879 ft 491 kts 54°
2026-05-06 15:49 45.84739 5.86348 35880 ft 492 kts 54°
2026-05-06 15:50 45.88880 5.94084 35883 ft 490 kts 51°
2026-05-06 15:50 45.93460 6.01239 35892 ft 490 kts 44°
2026-05-06 15:51 45.98492 6.07817 35895 ft 489 kts 41°
2026-05-06 15:51 46.03566 6.14311 35901 ft 489 kts 42°
2026-05-06 15:52 46.06098 6.17592 35753 ft 489 kts 42°
2026-05-06 15:52 46.08582 6.20840 35835 ft 491 kts 43°
2026-05-06 15:52 46.13500 6.27721 35875 ft 492 kts 45°
2026-05-06 15:53 46.18348 6.34620 35904 ft 491 kts 45°
2026-05-06 15:53 46.23160 6.41483 35906 ft 491 kts 45°
2026-05-06 15:54 46.28007 6.48409 35897 ft 491 kts 45°
2026-05-06 15:54 46.32852 6.55349 35898 ft 491 kts 45°
2026-05-06 15:55 46.37543 6.62494 35902 ft 491 kts 51°
2026-05-06 15:55 46.41785 6.70194 35908 ft 491 kts 53°
2026-05-06 15:56 46.45999 6.77925 35910 ft 491 kts 53°
2026-05-06 15:56 46.50229 6.85593 35902 ft 490 kts 52°
2026-05-06 15:57 46.54512 6.93324 35886 ft 491 kts 53°
2026-05-06 15:57 46.58740 7.00965 35893 ft 491 kts 52°
2026-05-06 15:58 46.62996 7.08676 35892 ft 491 kts 52°
2026-05-06 15:58 46.67259 7.16419 35890 ft 491 kts 53°
2026-05-06 15:59 46.71516 7.24174 35898 ft 491 kts 52°
2026-05-06 15:59 46.75763 7.31931 35893 ft 491 kts 53°
2026-05-06 16:00 46.79994 7.39683 35897 ft 491 kts 53°
2026-05-06 16:00 46.84226 7.47458 35899 ft 491 kts 52°
2026-05-06 16:01 46.88448 7.55237 35894 ft 491 kts 53°
2026-05-06 16:01 46.92662 7.63019 36165 ft 491 kts 52°
2026-05-06 16:02 46.94781 7.66943 36024 ft 490 kts 53°
2026-05-06 16:02 46.96869 7.70831 35963 ft 489 kts 53°
2026-05-06 16:02 47.01055 7.78631 35915 ft 489 kts 53°
2026-05-06 16:03 47.05237 7.86425 35900 ft 489 kts 53°
2026-05-06 16:03 47.09433 7.94264 35898 ft 489 kts 53°
2026-05-06 16:04 47.13624 8.02066 35900 ft 489 kts 53°
2026-05-06 16:04 47.17824 8.09914 35900 ft 489 kts 53°
2026-05-06 16:05 47.21977 8.17734 35903 ft 489 kts 53°
2026-05-06 16:05 47.26219 8.25521 35903 ft 489 kts 49°
2026-05-06 16:06 47.31126 8.32440 35906 ft 489 kts 39°
2026-05-06 16:06 47.36730 8.38027 35900 ft 488 kts 28°
2026-05-06 16:07 47.42788 8.42446 35897 ft 487 kts 24°
2026-05-06 16:07 47.48905 8.46683 35891 ft 488 kts 24°
2026-05-06 16:08 47.55037 8.50994 35891 ft 488 kts 24°
2026-05-06 16:08 47.61136 8.55327 35887 ft 487 kts 24°
2026-05-06 16:09 47.67219 8.59668 35893 ft 487 kts 24°
2026-05-06 16:09 47.73287 8.64008 35883 ft 487 kts 24°
2026-05-06 16:10 47.79384 8.68397 35879 ft 487 kts 25°
2026-05-06 16:10 47.85458 8.72796 35879 ft 487 kts 25°
2026-05-06 16:11 47.91527 8.77181 35867 ft 487 kts 25°
2026-05-06 16:11 47.97598 8.81562 35850 ft 487 kts 25°
2026-05-06 16:12 48.03653 8.85942 35843 ft 487 kts 25°
2026-05-06 16:12 48.09772 8.90345 35847 ft 486 kts 23°
2026-05-06 16:13 48.16058 8.93918 35841 ft 485 kts 15°
2026-05-06 16:13 48.22587 8.96254 35828 ft 484 kts
2026-05-06 16:14 48.25906 8.96956 35616 ft 483 kts
2026-05-06 16:14 48.29263 8.97469 35010 ft 487 kts
2026-05-06 16:14 48.32613 8.97920 34181 ft 495 kts
2026-05-06 16:14 48.36063 8.98382 33317 ft 502 kts
2026-05-06 16:15 48.39509 8.98866 32517 ft 505 kts
2026-05-06 16:15 48.43026 8.99390 31761 ft 504 kts
2026-05-06 16:15 48.46518 8.99918 31113 ft 503 kts
2026-05-06 16:15 48.49937 9.00442 30335 ft 502 kts
2026-05-06 16:16 48.53427 9.00979 29473 ft 501 kts
2026-05-06 16:16 48.56858 9.01508 28539 ft 501 kts
2026-05-06 16:16 48.60292 9.02035 27562 ft 502 kts
2026-05-06 16:16 48.63721 9.02643 26883 ft 495 kts
2026-05-06 16:17 48.67122 9.03412 26328 ft 487 kts
2026-05-06 16:17 48.70420 9.04207 25807 ft 478 kts
2026-05-06 16:17 48.73660 9.04997 25291 ft 471 kts 10°
2026-05-06 16:17 48.76845 9.05768 24779 ft 464 kts
2026-05-06 16:18 48.80023 9.06528 24282 ft 458 kts 10°
2026-05-06 16:18 48.83145 9.07272 23765 ft 452 kts
2026-05-06 16:18 48.86218 9.08008 23277 ft 447 kts
2026-05-06 16:18 48.89269 9.08649 22770 ft 442 kts
2026-05-06 16:19 48.92340 9.09125 22257 ft 438 kts
2026-05-06 16:19 48.95353 9.09539 21754 ft 434 kts
2026-05-06 16:19 48.98313 9.09943 21250 ft 430 kts
2026-05-06 16:19 49.01276 9.10355 20741 ft 426 kts
2026-05-06 16:20 49.04227 9.10774 20220 ft 422 kts
2026-05-06 16:20 49.07103 9.11188 19717 ft 418 kts
2026-05-06 16:20 49.09991 9.11601 19207 ft 414 kts
2026-05-06 16:20 49.12852 9.12006 18692 ft 411 kts
2026-05-06 16:21 49.15674 9.12403 18191 ft 407 kts
2026-05-06 16:21 49.18476 9.12802 17689 ft 403 kts
2026-05-06 16:21 49.21209 9.13191 17179 ft 400 kts
2026-05-06 16:21 49.23963 9.13588 16662 ft 396 kts
2026-05-06 16:22 49.26716 9.14001 16135 ft 393 kts
2026-05-06 16:22 49.29365 9.14617 15612 ft 391 kts
2026-05-06 16:22 49.32029 9.15487 15063 ft 389 kts 12°
2026-05-06 16:22 49.34662 9.16419 14524 ft 386 kts 12°
2026-05-06 16:23 49.37270 9.17353 13989 ft 384 kts 12°
2026-05-06 16:23 49.39830 9.18269 13462 ft 381 kts 12°
2026-05-06 16:23 49.42414 9.19189 12926 ft 378 kts 12°
2026-05-06 16:23 49.44946 9.20089 12394 ft 376 kts 11°
2026-05-06 16:24 49.47488 9.20993 11859 ft 373 kts 11°
2026-05-06 16:24 49.49999 9.21886 11333 ft 370 kts 11°
2026-05-06 16:24 49.52494 9.22775 10804 ft 368 kts 11°
2026-05-06 16:24 49.54935 9.23647 10613 ft 356 kts 11°
2026-05-06 16:25 49.57338 9.24505 10638 ft 356 kts 11°
2026-05-06 16:25 49.59746 9.25365 10659 ft 357 kts 11°
2026-05-06 16:25 49.62168 9.26229 10670 ft 356 kts 11°
2026-05-06 16:25 49.64575 9.27091 10400 ft 351 kts 11°
2026-05-06 16:26 49.66950 9.27942 9942 ft 350 kts 11°
2026-05-06 16:26 49.69335 9.28759 9772 ft 348 kts
2026-05-06 16:26 49.71672 9.28607 9746 ft 326 kts 340°
2026-05-06 16:26 49.73607 9.27009 9460 ft 314 kts 321°
2026-05-06 16:27 49.75321 9.24994 9177 ft 307 kts 321°
2026-05-06 16:27 49.77020 9.23037 8902 ft 301 kts 321°
2026-05-06 16:27 49.78688 9.21180 8569 ft 296 kts 322°
2026-05-06 16:27 49.80365 9.19355 8243 ft 292 kts 323°
2026-05-06 16:28 49.82022 9.17579 7927 ft 287 kts 323°
2026-05-06 16:28 49.83643 9.15854 7614 ft 283 kts 323°
2026-05-06 16:28 49.85249 9.14155 7307 ft 278 kts 323°
2026-05-06 16:28 49.86840 9.12473 6928 ft 277 kts 323°
2026-05-06 16:29 49.88432 9.10790 6560 ft 275 kts 323°
2026-05-06 16:29 49.90007 9.09125 6232 ft 272 kts 323°
2026-05-06 16:29 49.91538 9.07503 5922 ft 268 kts 323°
2026-05-06 16:29 49.93083 9.05867 5615 ft 265 kts 323°
2026-05-06 16:30 49.94598 9.04263 5316 ft 262 kts 323°
2026-05-06 16:30 49.95579 9.03224 5127 ft 259 kts 324°
2026-05-06 16:30 49.97524 9.01126 4857 ft 250 kts 322°
2026-05-06 16:30 49.98897 8.99560 4586 ft 245 kts 322°
2026-05-06 16:31 50.00255 8.97996 4228 ft 238 kts 321°
2026-05-06 16:31 50.01489 8.96307 3895 ft 231 kts 313°
2026-05-06 16:31 50.02498 8.94452 3595 ft 218 kts 306°
2026-05-06 16:31 50.03376 8.92622 3387 ft 204 kts 306°
2026-05-06 16:32 50.04184 8.90914 3176 ft 192 kts 306°
2026-05-06 16:32 50.04945 8.89311 3099 ft 180 kts 305°
2026-05-06 16:32 50.05640 8.87733 3014 ft 177 kts 297°
2026-05-06 16:32 50.06067 8.85935 3008 ft 177 kts 283°
2026-05-06 16:33 50.06222 8.84033 3005 ft 178 kts 276°
2026-05-06 16:33 50.06317 8.82105 2973 ft 178 kts 275°
2026-05-06 16:33 50.06406 8.80193 2872 ft 177 kts 276°
2026-05-06 16:34 50.06584 8.76382 2667 ft 176 kts 275°
2026-05-06 16:34 50.06667 8.74501 2509 ft 175 kts 275°
2026-05-06 16:34 50.06735 8.72638 2183 ft 168 kts 274°
2026-05-06 16:34 50.06743 8.70893 1891 ft 158 kts 267°
2026-05-06 16:35 50.06514 8.69308 1712 ft 144 kts 256°
2026-05-06 16:35 50.06202 8.67876 1526 ft 135 kts 255°
2026-05-06 16:35 50.05883 8.66506 1341 ft 133 kts 253°
2026-05-06 16:35 50.05559 8.65158 1166 ft 132 kts 253°
2026-05-06 16:36 50.05243 8.63816 1015 ft 132 kts 252°
2026-05-06 16:36 50.04914 8.62471 863 ft 132 kts 252°
2026-05-06 16:36 50.04603 8.61136 707 ft 132 kts 253°
2026-05-06 16:36 50.04286 8.59803 547 ft 131 kts 251°
2026-05-06 16:37 50.03963 8.58481 383 ft 130 kts 252°
2026-05-06 16:37 50.03669 8.57226 351 ft 106 kts 249°
2026-05-06 16:37 50.03469 8.56400 351 ft 63 kts 250°
2026-05-06 16:37 50.03331 8.55819 351 ft 49 kts 256°
2026-05-06 16:38 50.03336 8.55329 351 ft 36 kts 280°
2026-05-06 16:38 50.03363 8.54964 351 ft 31 kts 261°
2026-05-06 16:38 50.03301 8.54662 351 ft 24 kts 251°
2026-05-06 16:38 50.03321 8.54477 351 ft 13 kts 340°
2026-05-06 16:39 50.03364 8.54457 351 ft 6 kts 342°
2026-05-06 16:39 50.03420 8.54426 351 ft 12 kts 340°
2026-05-06 16:39 50.03524 8.54367 351 ft 19 kts 343°
2026-05-06 16:39 50.03646 8.54320 351 ft 10 kts 22°
2026-05-06 16:40 50.03656 8.54330 351 ft 0 kts 38°
2026-05-06 16:41 50.03662 8.54339 351 ft 3 kts 49°
2026-05-06 16:41 50.03692 8.54458 351 ft 20 kts 71°
2026-05-06 16:41 50.03755 8.54724 351 ft 28 kts 70°
2026-05-06 16:41 50.03825 8.55001 351 ft 26 kts 70°
2026-05-06 16:42 50.03887 8.55270 351 ft 25 kts 70°
2026-05-06 16:42 50.03948 8.55520 351 ft 24 kts 69°
2026-05-06 16:42 50.04008 8.55770 351 ft 30 kts 70°
2026-05-06 16:42 50.04083 8.56087 351 ft 30 kts 69°
2026-05-06 16:43 50.04154 8.56382 351 ft 28 kts 72°
2026-05-06 16:43 50.04222 8.56663 351 ft 27 kts 69°
2026-05-06 16:43 50.04287 8.56931 351 ft 25 kts 70°
2026-05-06 16:43 50.04348 8.57188 351 ft 24 kts 70°
2026-05-06 16:44 50.04409 8.57432 351 ft 24 kts 66°
2026-05-06 16:44 50.04468 8.57676 351 ft 23 kts 71°
2026-05-06 16:44 50.04517 8.57902 351 ft 18 kts 71°
2026-05-06 16:44 50.04603 8.58024 351 ft 17 kts 349°
2026-05-06 16:45 50.04719 8.57959 351 ft 17 kts 341°
2026-05-06 16:45 50.04827 8.57883 351 ft 15 kts 324°
2026-05-06 16:45 50.04841 8.57762 351 ft 12 kts 230°
2026-05-06 16:45 50.04811 8.57702 351 ft 4 kts 233°
2026-05-06 16:46 50.04805 8.57690 351 ft 0 kts 236°